Terminal Aerodrome Forecast
Issued by NWS

Home | Current Version | Previous Version | Text Only | Print | Product List | Glossary Off
Versions: 1 2 3 4 5 6 7 8 9 10 11 12 13 14 15 16 17 18 19 20 21

783
FTUS42 KMHX 051331 AAA
TAFISO
TAF AMD
KISO 051331Z 0514/0612 08007KT P6SM VCSH SCT010 OVC020
     FM051800 03007KT 6SM SHRA VCTS OVC010CB
     FM060200 00000KT 6SM SHRA OVC007
     FM060500 00000KT 6SM -SHRA OVC007
     FM060700 VRB04KT 5SM -SHRA OVC003
      AMD LTD TO CLD VIS AND WIND=

USA.gov is the U.S. government's official web portal to all federal, state and local government web resources and services.